Regional Weather Roundup
Issued by NWS Cleveland, OH

Home | Current Version | Previous Version | Graphics & Text | Print | Product List | Glossary On
Versions: 1 2 3 4 5 6 7 8 9 10 11 12 13 14 15 16 17 18 19 20 21 22 23 24 25 26 27 28 29 30 31 32 33 34 35 36 37 38 39 40 41 42 43 44 45 46 47 48 49 50
000
ASUS41 KCLE 251602
RWRCLE
OHIO REGIONAL WEATHER ROUNDUP
NATIONAL WEATHER SERVICE CLEVELAND, OH
1200 PM EDT SAT APR 25 2015

NOTE: "FAIR" INDICATES FEW OR NO CLOUDS BELOW 12,000 FEET WITH NO
SIGNIFICANT WEATHER AND/OR OBSTRUCTIONS TO VISIBILITY.

OHZ001>008-015>018-024>027-034-035-043-044-251700-
   NORTHWEST OHIO

CITY           SKY/WX    TMP DP  RH WIND       PRES   REMARKS
DEFIANCE       CLOUDY    46  40  79 E14       29.85S
FINDLAY        LGT RAIN  47  37  68 E15       29.82F
TOLEDO EXPRESS CLOUDY    45  38  76 E13       29.86F
TOLEDO EXEC    CLOUDY    46  36  68 E13       29.87F
LIMA           CLOUDY    47  38  71 E18       29.81F
$$

OHZ009>014-019>023-028>033-038-089-251700-
   NORTHEAST OHIO

CITY           SKY/WX    TMP DP  RH WIND       PRES   REMARKS
CLE-HOPKINS    CLOUDY    49  29  46 E13       29.91F
CLE-LAKEFRONT  CLOUDY    46  33  60 N14       29.90F
CUY CO. ARPT   CLOUDY    50  28  43 NE9       29.91F
LORAIN-ELYRIA  CLOUDY    47  36  65 E12       29.88F
ASHTABULA      PTSUNNY   46  21  37 VRB6      29.92F
AKRON-CANTON   CLOUDY    46  32  58 E12       29.88F
WOOSTER        CLOUDY    43  36  76 E10       29.88F
MANSFIELD      CLOUDY    44  35  70 E12       29.84F
YOUNGSTOWN     PTSUNNY   47  22  37 VRB3      29.90F
$$

OHZ042-051>053-060>062-070>072-077>081-251700-
  SOUTHWEST OHIO

CITY           SKY/WX    TMP DP  RH WIND       PRES   REMARKS
CINC-COVINGTON LGT RAIN  48  46  93 E9        29.71F FOG
CINC-LUNKEN    LGT RAIN  49  46  90 E5        29.75S FOG
HAMILTON       LGT RAIN  50  43  77 E10       29.75S
DAYTON         LGT RAIN  45  33  63 E14G26    29.78F
WRIGHT-PAT AFB LGT RAIN  44  35  70 E16G24    29.77F
DAYTON GENERAL LGT RAIN  46  36  68 E13       29.74F
WILMINGTON     LGT RAIN  46  32  58 E14G21    29.75F
$$

OHZ036-037-039>041-045>050-054>059-063>069-073>076-082>088-251700-
  CENTRAL AND SOUTHEAST OHIO

CITY           SKY/WX    TMP DP  RH WIND       PRES   REMARKS
COLUMBUS       CLOUDY    47  29  49 E14       29.81F
OSU AIRPORT    CLOUDY    47  29  49 E12       29.81F
BOLTON FIELD   CLOUDY    46  28  49 E12       29.81F
RICKENBACK AFB NOT AVBL
NEWARK         CLOUDY    50  29  44 E12       29.81F
MARION         CLOUDY    45  35  68 E16       29.84F
LANCASTER      CLOUDY    47  29  49 E12       29.82F
ZANESVILLE     CLOUDY    47  29  49 E16       29.82F
NEW PHILLY     CLOUDY    49  33  54 E9        29.88F
$$


USA.gov is the U.S. government's official web portal to all federal, state and local government web resources and services.